Location: ??????????
(54.8537°N, 38.8755°E)
Time: 21:47:38
(UTC+00:00)

Transit 2A Rocket - Pass Details

Date: 16 September 2024
Orbit: 582 x 908 km, 66.7° (Epoch: 09 October)

Event Time Altitude Azimuth Distance (km) Brightness Sun altitude
Exits shadow 00:35:00 10° 294° (WNW) 2,580 7.4 -20.0°
Maximum altitude 00:40:04 28° 351° (N) 1,652 7.0 -19.4°
Drops below altitude 10° 00:45:07 10° 49° (NE) 2,548 8.9 -18.8°
Sets 00:47:58 0° 61° (ENE) 3,449 10.1 -18.5°
